TimeCDT,TemperatureF,Dew PointF,Humidity,Sea Level PressureIn,VisibilityMPH,Wind Direction,Wind SpeedMPH,Gust SpeedMPH,PrecipitationIn,Events,Conditions,WindDirDegrees,DateUTC
12:01 AM,46.4,44.6,93,29.90,10.0,North,5.8,-,0.00,Rain,Light Rain,350,2013-04-11 05:01:00
1:53 AM,46.9,42.1,83,29.87,9.0,North,9.2,-,0.01,Rain,Light Rain,350,2013-04-11 06:53:00
2:30 AM,46.4,42.8,87,29.82,2.5,NW,20.7,26.5,0.03,Rain,Light Rain,320,2013-04-11 07:30:00
2:36 AM,44.6,42.8,93,29.81,3.0,NNW,15.0,26.5,0.06,Rain,Heavy Rain,330,2013-04-11 07:36:00
2:43 AM,44.6,42.8,93,29.79,5.0,NNW,11.5,25.3,0.08,Rain,Light Rain,340,2013-04-11 07:43:00
2:53 AM,45.0,43.0,93,29.87,8.0,West,8.1,23.0,0.09,Rain,Light Rain,280,2013-04-11 07:53:00
3:35 AM,46.4,42.8,87,29.87,9.0,Calm,Calm,-,0.03,Rain,Light Rain,0,2013-04-11 08:35:00
3:53 AM,45.0,43.0,93,29.83,10.0,NNW,8.1,-,0.03,,Overcast,330,2013-04-11 08:53:00
4:53 AM,44.1,41.0,89,29.85,10.0,Variable,5.8,-,N/A,,Overcast,0,2013-04-11 09:53:00
5:30 AM,44.6,41.0,87,29.93,8.0,West,6.9,-,0.04,Rain,Light Rain,280,2013-04-11 10:30:00
5:53 AM,44.1,39.9,85,29.87,7.0,NNW,12.7,20.7,0.09,Rain,Rain,330,2013-04-11 10:53:00
6:53 AM,44.1,37.9,79,29.88,10.0,WNW,6.9,-,N/A,,Mostly Cloudy,290,2013-04-11 11:53:00
7:53 AM,43.0,37.0,80,29.92,10.0,NW,9.2,17.3,N/A,,Overcast,320,2013-04-11 12:53:00
8:53 AM,42.1,37.0,82,29.88,5.0,Variable,5.8,-,0.09,Rain,Light Rain,0,2013-04-11 13:53:00
10:53 AM,46.9,36.0,66,29.88,10.0,NW,9.2,-,N/A,,Clear,320,2013-04-11 15:53:00
11:53 AM,53.6,37.4,54,29.91,10.0,NW,9.2,-,N/A,,Partly Cloudy,310,2013-04-11 16:53:00
1:53 PM,62.1,39.0,43,29.84,10.0,Variable,4.6,-,N/A,,Clear,0,2013-04-11 18:53:00
2:53 PM,64.9,39.9,40,29.83,10.0,NW,8.1,-,N/A,,Clear,320,2013-04-11 19:53:00
3:53 PM,66.9,39.0,36,29.79,10.0,WNW,6.9,-,N/A,,Clear,300,2013-04-11 20:53:00
4:53 PM,69.1,39.0,33,29.79,10.0,NNW,6.9,-,N/A,,Clear,330,2013-04-11 21:53:00
5:53 PM,68.0,39.0,35,29.79,10.0,Variable,4.6,-,N/A,,Clear,0,2013-04-11 22:53:00
6:53 PM,66.0,39.9,38,29.80,10.0,NW,3.5,-,N/A,,Clear,320,2013-04-11 23:53:00
7:53 PM,61.0,39.9,46,29.81,10.0,Calm,Calm,-,N/A,,Clear,0,2013-04-12 00:53:00
8:53 PM,53.1,46.0,77,29.83,10.0,Calm,Calm,-,N/A,,Clear,0,2013-04-12 01:53:00
9:53 PM,52.0,45.0,77,29.86,10.0,Calm,Calm,-,N/A,,Clear,0,2013-04-12 02:53:00
10:53 PM,48.9,45.0,86,29.86,10.0,Calm,Calm,-,N/A,,Clear,0,2013-04-12 03:53:00
11:53 PM,46.9,44.1,90,29.88,10.0,Calm,Calm,-,N/A,,Clear,0,2013-04-12 04:53:00